This is the latest recevied weather packets stored in our database for station/object LA1HSA-13. If no packets are shown the sender has not sent any weather packets the latest 10 day(s).
| Time | Temp. | Humidity | Pressure | Rain* | Wind** | Luminosity | Snow |
|---|---|---|---|---|---|---|---|
| 1777831204 | 10° C | 75% | 1007.4 hPa | 0 mm | - | - | - |
| 1777830603 | 10.56° C | 74% | 1007.5 hPa | 0 mm | - | - | - |
| 1777830003 | 11.11° C | 72% | 1007.2 hPa | 0 mm | - | - | - |
| 1777829403 | 11.11° C | 71% | 1007.1 hPa | 0 mm | - | - | - |
| 1777828803 | 11.67° C | 69% | 1007.5 hPa | 0 mm | - | - | - |
| 1777828203 | 11.67° C | 67% | 1007.6 hPa | 0 mm | - | - | - |
| 1777827603 | 11.67° C | 68% | 1007.8 hPa | 0 mm | - | - | - |
| 1777827003 | 11.67° C | 67% | 1007.8 hPa | 0 mm | - | - | - |
| 1777826403 | 11.67° C | 66% | 1007.7 hPa | 0 mm | - | - | - |
| 1777825803 | 11.67° C | 67% | 1007.9 hPa | 0 mm | - | - | - |
| 1777825203 | 11.67° C | 67% | 1007.8 hPa | 0 mm | - | - | - |
| 1777824603 | 11.67° C | 68% | 1008.2 hPa | 0 mm | - | - | - |
| 1777824003 | 12.22° C | 67% | 1008.1 hPa | 0 mm | - | - | - |
| 1777823403 | 12.22° C | 66% | 1008.3 hPa | 0 mm | - | - | - |
| 1777822803 | 12.22° C | 65% | 1008.5 hPa | 0 mm | - | - | - |
| 1777822204 | 12.22° C | 65% | 1008.5 hPa | 0 mm | - | - | - |
| 1777821603 | 12.22° C | 63% | 1008.5 hPa | 0 mm | - | - | - |
| 1777821003 | 12.22° C | 64% | 1008.6 hPa | 0 mm | - | - | - |
| 1777820404 | 12.22° C | 64% | 1008.6 hPa | 0 mm | - | - | - |
| 1777819803 | 11.67° C | 65% | 1008.9 hPa | 0 mm | - | - | - |
| 1777819203 | 11.67° C | 64% | 1009 hPa | 0 mm | - | - | - |
| 1777818603 | 12.22° C | 63% | 1009.1 hPa | 0 mm | - | - | - |
| 1777818003 | 11.67° C | 64% | 1009.3 hPa | 0 mm | - | - | - |
| 1777817403 | 11.11° C | 66% | 1009.5 hPa | 0 mm | - | - | - |
| 1777816204 | 12.22° C | 64% | 1009.8 hPa | 0 mm | - | - | - |
* Rain latest hour (hover to see other rain measurements)
** Current wind speed in m/s (hover to see current wind gust speed)